7 * 24
多渠道服务支持
STARLINK-35925是美国SpaceX公司于2025年12月4日发射的星链计划卫星,星链旨在打造全球低轨宽带互联网星座,为全球提供高速低延迟网络服务。该卫星属于量产型星链卫星,部署于近地轨道,采用氪工质霍尔推进器,具备自主避撞能力,寿命末期会主动离轨再入大气层销毁。作为星链组网的组成部分,它进一步扩容了星链星座规模,助力覆盖全球的互联网接入服务,同时延续星链技术方案,保障星座运行稳定性与可靠性。
美国
(US)
| 数据来源 | 国际轨道数据 |
| 星历时间: | 2026-03-13T13:19:22+0800 21小时前 查看轨道信息 |
| 半长轴: | 6853.364km |
| 偏心率: | 0.0001055 |
| 轨道倾角: | 53.162° |
| 近地点辐角 | 86.926° |
| 升交点赤经 | 7.856° |
| 平近点角 | 273.186° |
| 近地点: | 474.503km |
| 远地点: | 475.951km |
| 周期: | 94.106分钟 |
| 每日圈数: | 15.301963 |